• în Republica Moldova
  • Lista ţărilor
  • Pe 7 zile
  • Temperatura apei
  • Hartă satelitară
  • Meteo pe hartă
  • Widget-uri
  • user-avatar
    Intrare

    Meteo pe oră la Hobart

    Astăzi, 17 Decembrie, Duminică

    Timp Temperatura Precipitaţii Vânt Presiune Umiditate
    00:00 +8°C° 0 mm 2 m/s 749 mmHg 96%
    01:00 +8°C° 0 mm 2 m/s 750 mmHg 96%
    02:00 +7°C° 0 mm 2 m/s 750 mmHg 96%
    03:00 +7°C° 0 mm 2 m/s 750 mmHg 96%
    04:00 +6°C° 0 mm 2 m/s 750 mmHg 96%
    05:00 +9°C° 0 mm 2 m/s 750 mmHg 85%
    06:00 +12°C° 0 mm 1 m/s 751 mmHg 75%
    07:00 +14°C° 0 mm 1 m/s 751 mmHg 64%
    08:00 +18°C° 0 mm 1 m/s 751 mmHg 55%
    09:00 +19°C° 0 mm 2 m/s 751 mmHg 46%
    10:00 +21°C° 0 mm 2 m/s 752 mmHg 40%
    11:00 +23°C° 0 mm 2 m/s 752 mmHg 37%
    12:00 +24°C° 0 mm 3 m/s 752 mmHg 35%
    13:00 +25°C° 0 mm 3 m/s 752 mmHg 33%
    14:00 +24°C° 0 mm 3 m/s 751 mmHg 36%
    15:00 +23°C° 0 mm 4 m/s 751 mmHg 40%
    16:00 +22°C° 0 mm 4 m/s 751 mmHg 44%
    17:00 +20°C° 0 mm 4 m/s 751 mmHg 51%
    18:00 +18°C° 0 mm 4 m/s 751 mmHg 59%
    19:00 +17°C° 0 mm 4 m/s 751 mmHg 66%
    20:00 +14°C° 0 mm 4 m/s 751 mmHg 75%
    21:00 +12°C° 0 mm 4 m/s 751 mmHg 84%
    22:00 +10°C° 0 mm 3 m/s 751 mmHg 94%
    23:00 +10°C° 0 mm 3 m/s 750 mmHg 95%

    Mâine, 18 Decembrie, Luni

    Timp Temperatura Precipitaţii Vânt Presiune Umiditate
    00:00 +10°C° 0 mm 3 m/s 750 mmHg 96%
    01:00 +10°C° 0 mm 4 m/s 749 mmHg 97%
    02:00 +10°C° 0 mm 3 m/s 749 mmHg 97%
    03:00 +10°C° 0 mm 3 m/s 748 mmHg 97%
    04:00 +9°C° 0 mm 3 m/s 748 mmHg 97%
    05:00 +13°C° 0 mm 2 m/s 748 mmHg 87%
    06:00 +15°C° 0 mm 1 m/s 747 mmHg 77%
    07:00 +19°C° 0 mm 1 m/s 747 mmHg 67%
    08:00 +22°C° 0 mm 1 m/s 747 mmHg 56%
    09:00 +25°C° 0 mm 1 m/s 747 mmHg 44%
    10:00 +28°C° 0 mm 1 m/s 747 mmHg 33%
    11:00 +29°C° 0 mm 2 m/s 747 mmHg 31%
    12:00 +30°C° 0 mm 2 m/s 746 mmHg 28%
    13:00 +31°C° 0 mm 3 m/s 746 mmHg 26%
    14:00 +30°C° 0 mm 3 m/s 745 mmHg 30%
    15:00 +29°C° 0 mm 3 m/s 745 mmHg 35%
    16:00 +28°C° 0 mm 3 m/s 744 mmHg 40%
    17:00 +25°C° 0 mm 3 m/s 744 mmHg 51%
    18:00 +22°C° 0 mm 3 m/s 744 mmHg 63%
    19:00 +20°C° 0 mm 2 m/s 745 mmHg 74%
    20:00 +18°C° 0 mm 2 m/s 744 mmHg 81%
    21:00 +17°C° 0 mm 2 m/s 744 mmHg 89%
    22:00 +16°C° 0 mm 2 m/s 744 mmHg 96%
    23:00 +16°C° 0 mm 2 m/s 743 mmHg 97%

    Poimâine, 19 Decembrie, Marţi

    Timp Temperatura Precipitaţii Vânt Presiune Umiditate
    00:00 +16°C° 0 mm 2 m/s 743 mmHg 98%
    01:00 +16°C° 0 mm 3 m/s 742 mmHg 98%
    02:00 +16°C° 0 mm 3 m/s 741 mmHg 98%
    03:00 +16°C° 0 mm 3 m/s 741 mmHg 97%
    04:00 +17°C° 0 mm 4 m/s 740 mmHg 97%
    05:00 +18°C° 0 mm 4 m/s 739 mmHg 91%
    06:00 +19°C° 0 mm 4 m/s 739 mmHg 84%
    07:00 +20°C° 0 mm 5 m/s 738 mmHg 78%
    08:00 +22°C° 0 mm 5 m/s 737 mmHg 68%
    09:00 +24°C° 0 mm 6 m/s 736 mmHg 58%
    10:00 +27°C° 0 mm 6 m/s 736 mmHg 49%
    11:00 +29°C° 0 mm 6 m/s 735 mmHg 46%
    12:00 +30°C° 0 mm 6 m/s 735 mmHg 42%
    13:00 +33°C° 0 mm 7 m/s 734 mmHg 39%
    14:00 +32°C° 0,1 mm 7 m/s 733 mmHg 43%
    15:00 +32°C° 0,1 mm 7 m/s 733 mmHg 46%
    16:00 +30°C° 0,1 mm 7 m/s 732 mmHg 49%
    17:00 +28°C° 0,1 mm 6 m/s 733 mmHg 50%
    18:00 +24°C° 0,1 mm 6 m/s 733 mmHg 51%
    19:00 +22°C° 0,1 mm 5 m/s 733 mmHg 51%
    20:00 +20°C° 0 mm 5 m/s 733 mmHg 52%
    21:00 +19°C° 0 mm 4 m/s 734 mmHg 52%
    22:00 +17°C° 0 mm 4 m/s 734 mmHg 52%
    23:00 +17°C° 0 mm 4 m/s 733 mmHg 55%

    20 Decembrie, Miercuri

    Timp Temperatura Precipitaţii Vânt Presiune Umiditate
    00:00 +17°C° 0 mm 4 m/s 733 mmHg 57%
    01:00 +17°C° 0 mm 4 m/s 733 mmHg 60%
    02:00 +15°C° 0 mm 4 m/s 733 mmHg 64%
    03:00 +14°C° 0 mm 4 m/s 733 mmHg 69%
    04:00 +14°C° 0 mm 4 m/s 733 mmHg 73%
    05:00 +15°C° 0 mm 4 m/s 733 mmHg 69%
    06:00 +16°C° 0 mm 5 m/s 733 mmHg 65%
    07:00 +17°C° 0 mm 6 m/s 734 mmHg 61%
    08:00 +16°C° 0,4 mm 6 m/s 734 mmHg 67%
    09:00 +15°C° 0,4 mm 6 m/s 734 mmHg 74%
    10:00 +14°C° 0,4 mm 6 m/s 734 mmHg 80%
    11:00 +15°C° 0,2 mm 7 m/s 735 mmHg 71%
    12:00 +15°C° 0,2 mm 7 m/s 735 mmHg 62%
    13:00 +16°C° 0,2 mm 7 m/s 735 mmHg 53%
    14:00 +15°C° 0,1 mm 8 m/s 736 mmHg 56%
    15:00 +15°C° 0,1 mm 8 m/s 737 mmHg 58%
    16:00 +13°C° 0,1 mm 8 m/s 737 mmHg 61%
    17:00 +12°C° 0,1 mm 8 m/s 738 mmHg 62%
    18:00 +11°C° 0,1 mm 7 m/s 739 mmHg 63%
    19:00 +11°C° 0,1 mm 7 m/s 741 mmHg 65%
    20:00 +10°C° 0 mm 6 m/s 742 mmHg 70%
    21:00 +9°C° 0 mm 5 m/s 742 mmHg 75%
    22:00 +8°C° 0 mm 5 m/s 743 mmHg 80%
    23:00 +8°C° 0 mm 5 m/s 744 mmHg 81%

    21 Decembrie, Joi

    Timp Temperatura Precipitaţii Vânt Presiune Umiditate
    00:00 +8°C° 0 mm 5 m/s 744 mmHg 82%
    01:00 +8°C° 0 mm 5 m/s 744 mmHg 83%
    02:00 +8°C° 0 mm 4 m/s 744 mmHg 82%
    03:00 +8°C° 0 mm 4 m/s 745 mmHg 80%
    04:00 +8°C° 0 mm 4 m/s 745 mmHg 79%
    05:00 +11°C° 0 mm 4 m/s 745 mmHg 75%
    06:00 +12°C° 0 mm 5 m/s 746 mmHg 70%
    07:00 +13°C° 0 mm 5 m/s 746 mmHg 65%
    08:00 +14°C° 0 mm 5 m/s 746 mmHg 62%
    09:00 +15°C° 0 mm 5 m/s 746 mmHg 59%
    10:00 +16°C° 0 mm 5 m/s 746 mmHg 56%
    11:00 +17°C° 0 mm 5 m/s 746 mmHg 53%
    12:00 +19°C° 0 mm 5 m/s 746 mmHg 50%
    13:00 +20°C° 0 mm 5 m/s 746 mmHg 47%
    14:00 +20°C° 0 mm 5 m/s 745 mmHg 49%
    15:00 +20°C° 0 mm 5 m/s 745 mmHg 51%
    16:00 +19°C° 0 mm 5 m/s 745 mmHg 53%
    17:00 +17°C° 0 mm 5 m/s 745 mmHg 58%
    18:00 +16°C° 0 mm 5 m/s 746 mmHg 63%
    19:00 +15°C° 0 mm 4 m/s 746 mmHg 68%
    20:00 +14°C° 0 mm 4 m/s 746 mmHg 73%
    21:00 +13°C° 0 mm 4 m/s 746 mmHg 78%
    22:00 +12°C° 0 mm 3 m/s 746 mmHg 83%
    23:00 +11°C° 0 mm 3 m/s 746 mmHg 83%

    22 Decembrie, Vineri

    Timp Temperatura Precipitaţii Vânt Presiune Umiditate
    00:00 +11°C° 0 mm 3 m/s 746 mmHg 84%
    01:00 +11°C° 0 mm 3 m/s 745 mmHg 85%
    02:00 +11°C° 0 mm 3 m/s 745 mmHg 85%
    03:00 +11°C° 0 mm 3 m/s 745 mmHg 85%
    04:00 +11°C° 0 mm 3 m/s 745 mmHg 85%
    05:00 +12°C° 0 mm 3 m/s 745 mmHg 79%
    06:00 +14°C° 0 mm 4 m/s 745 mmHg 74%
    07:00 +15°C° 0 mm 4 m/s 745 mmHg 69%
    08:00 +17°C° 0 mm 4 m/s 745 mmHg 64%
    09:00 +18°C° 0 mm 4 m/s 745 mmHg 59%
    10:00 +19°C° 0 mm 4 m/s 745 mmHg 54%
    11:00 +20°C° 0 mm 4 m/s 745 mmHg 51%
    12:00 +21°C° 0 mm 4 m/s 744 mmHg 47%
    13:00 +21°C° 0 mm 4 m/s 744 mmHg 44%
    14:00 +21°C° 0 mm 4 m/s 744 mmHg 45%
    15:00 +21°C° 0 mm 4 m/s 743 mmHg 45%
    16:00 +21°C° 0 mm 4 m/s 743 mmHg 46%
    17:00 +20°C° 0 mm 3 m/s 743 mmHg 51%
    18:00 +19°C° 0 mm 3 m/s 743 mmHg 56%
    19:00 +17°C° 0 mm 2 m/s 743 mmHg 61%
    20:00 +16°C° 0 mm 2 m/s 743 mmHg 68%
    21:00 +14°C° 0 mm 2 m/s 743 mmHg 74%
    22:00 +13°C° 0 mm 1 m/s 743 mmHg 81%
    23:00 +12°C° 0 mm 2 m/s 743 mmHg 85%
    Arată mai mult